Weather Roundup
Issued by NWS

Home | Current Version | Previous Version | Text Only | Print | Product List | Glossary On
Versions: 1 2 3 4 5 6 7 8 9 10 11 12 13 14 15 16 17 18 19 20 21 22 23 24 25 26 27 28 29 30 31 32 33 34 35 36 37 38 39 40 41 42 43 44 45 46 47 48 49 50
000
NZUS93 KARX 010410
HRRWXR

CURRENT HOURLY OBSERVATIONS ACROSS
MUCH OF THE UPPER MISSISSIPPI VALLEY
NATIONAL WEATHER SERVICE LA CROSSE WI
1000 PM CST SAT JAN 31 2015


...SOUTHEAST MINNESOTA...


CITY           SKY/WX    TMP DP  RH WIND       PRES   REMARKS
ROCHESTER      LGT SNOW  24  21  88 E14       30.11S VSB 3/4 WCI  12
ROCHESTER/MAYO CLOUDY    27  19  73 NE7       30.12S WCI  19
WINONA         CLOUDY    30  21  69 NE6       30.17S WCI  24
AUSTIN         LGT SNOW  25  21  86 E13       30.08F WCI  13
ALBERT LEA     LGT SNOW  25  25 100 NE15      30.08S WCI  12
DODGE CENTER   LGT SNOW  25  21  86 E15G21    30.10S WCI  12
PRESTON        LGT SNOW  24  22  93 NE10G16   30.10F WCI  13
OWATONNA       CLOUDY    27  19  74 NE12      30.11S WCI  16
FARIBAULT      CLOUDY    25  18  74 NE12G18   30.13F WCI  14
$$

...ELSEWHERE IN MINNESOTA...


CITY           SKY/WX    TMP DP  RH WIND       PRES   REMARKS
MINNEAPOLIS    CLOUDY    25  11  55 NE15      30.19S WCI  13
INTNL FALLS    MOCLDY    -9 -17  68 NE6       30.43R WCI -22
DULUTH         MOCLDY     5  -7  57 N12       30.29R WCI -11
RED WING       CLOUDY    25  14  63 E13G20    30.18R WCI  13
REDWOOD FALLS  CLOUDY    25  18  74 NE8       30.15S WCI  16
MANKATO        CLOUDY    25  18  74 NE16      30.12S WCI  12
WORTHINGTON    CLOUDY    28  19  69 NE20      30.04F WCI  15
FAIRMONT       CLOUDY    25  21  86 NE16      30.06S WCI  12
$$

...SOUTHWEST WISCONSIN...


CITY           SKY/WX    TMP DP  RH WIND       PRES   REMARKS
LA CROSSE      LGT SNOW  28  23  81 E5        30.17R WCI  23
PRAIRIE DU CHI LGT SNOW  30  26  87 E6        30.12S WCI  24
BOSCOBEL       LGT SNOW  29  26  89 NE6       30.14S VSB 1   WCI  23
LONE ROCK      LGT SNOW  28  24  85 E12       30.16R VSB 1   WCI  18
PLATTEVILLE    CLOUDY    30  29  95 NE14      30.10S WCI  19
FORT MC COY    CLOUDY    28  20  73 E8        30.18R WCI  19
CAMP DOUGLAS   CLOUDY    27  23  85 E7        30.17R WCI  20
VIROQUA        CLOUDY    26  26 100 E9        30.12R WCI  16
WIS DELLS      LGT SNOW  25  22  89 E9        30.16S VSB 3/4 WCI  15
$$

...ELSEWHERE IN WISCONSIN...


CITY           SKY/WX    TMP DP  RH WIND       PRES   REMARKS
MILWAUKEE      LGT SNOW  30  26  85 NE10      30.18R FOG     WCI  21
MADISON        LGT SNOW  26  23  88 E12       30.15S FOG     WCI  16
GREEN BAY      CLOUDY    19  13  77 NE24G31   30.26S WCI   2
EAU CLAIRE     CLOUDY    20   9  62 NE14      30.21R WCI   7
BLACK RVR FLS  CLOUDY    27  18  69 NE9       30.18R WCI  17
MEDFORD        CLOUDY    16   8  71 NE10G16   30.18S WCI   4
WAUSAU         CLOUDY    18   9  68 NE12      30.19R WCI   5
WIS RAPIDS     CLOUDY    26  16  65 NE8       30.19S WCI  18
MARSHFIELD     CLOUDY    23  13  65 NE10      30.17S WCI  12
RICE LAKE      CLOUDY    17   8  66 NE9       30.25S WCI   6
$$

...NORTHEAST IOWA...


CITY           SKY/WX    TMP DP  RH WIND       PRES   REMARKS
DECORAH        LGT SNOW  27  27 100 NE8G15    30.08F WCI  18
MASON CITY     LGT SNOW  27  25  92 E17       30.06S VSB 1   WCI  14
CHARLES CITY   LGT SNOW  28  28 100 NE14G20   30.06F VSB 3/4 WCI  17
OELWEIN        LGT SNOW  30  30 100 E14       30.06R VSB 1   WCI  20
$$

...ELSEWHERE IN IOWA...


CITY           SKY/WX    TMP DP  RH WIND       PRES   REMARKS
DES MOINES     LGT SNOW  34  31  88 E7        29.97F VSB 3/4 WCI  28
IOWA CITY      LGT SNOW  33  32  96 SE7       30.07F FOG     WCI  27
FORT DODGE     CLOUDY    30  27  86 CALM      29.99F
$$

...NORTHERN ILLINOIS...


CITY           SKY/WX    TMP DP  RH WIND       PRES   REMARKS
CHICAGO-OHARE  LGT SNOW  31  29  92 E7        30.15R VSB 1   WCI  24
CHICAGO-MIDWAY LGT SNOW  33  30  88 E7        30.16R FOG     WCI  27
MOLINE         LGT RAIN  33  31  92 SE3       30.09F FOG
ROCKFORD       LGT SNOW  31  28  89 E7        30.15R VSB 1   WCI  24
PEORIA         LGT SNOW  34  32  92 S7        30.14F FOG     WCI  28
$$

NOTE: "FAIR" INDICATES FEW OR NO CLOUDS BELOW 12,000 FEET WITH NO
SIGNIFICANT WEATHER AND/OR OBSTRUCTIONS TO VISIBILITY. WIND
SPEEDS ARE IN MILES-PER-HOUR.



USA.gov is the U.S. government's official web portal to all federal, state and local government web resources and services.